Flag for San Marino Weather past 2 weeks in San Marino, San Marino

Now
55 °F

Sunny.


Feels Like: 55 °F
Forecast: 32 / 51 °F
Wind: 5 mph from Northeast

Location: Rimini Airport

Current Time: Mar 28, 2015 at 2:02:34 PM

Latest Report: Mar 28, 2015 at 1:15 PM


Visibility: 10 mi

Pressure: 30.01 "Hg

Humidity: 51%

Dew point: 37 °F

Location of San MarinoLocation

Historic Weather in San Marino — Graph

°F

San Marino temperature yesterday

Maximum temperature yesterday: 52 °F (at 6:45 AM)
Minimum temperature yesterday: 48 °F (at 1:45 PM)
Average temperature yesterday: 50 °F

Past Weeks' High & Low Weather Summary

 TemperatureHumidityPressure
High59 °F (Mar 26, 10:45 AM)100% (Mar 14, 6:45 AM)30.30 "Hg (Mar 14, 6:45 AM)
Low36 °F (Mar 14, 6:45 AM)50% (Mar 13, 12:45 PM)29.42 "Hg (Mar 25, 1:15 PM)
Average50 °F85%30.03 "Hg
* Reported Mar 13 12:15 PM — Mar 28 12:45 PM, San Marino, Weather by CustomWeather, © 2015

Note: Actual official high and low records may vary slightly from our data, if they occured in-between our weather recording intervals... More about our weather records

Advertising

San Marino weather history for previous 24 hours

 ConditionsComfort  
Time TempWeatherWind HumidityBarometerVisibility
12:45 PM
Sat, Mar 28
55 °FSunny.5 mph59%30.01 "Hg10 mi
12:15 PM54 °FSunny.3 mph63%30.04 "Hg10 mi
11:45 AM54 °FSunny.3 mph67%30.04 "Hg10 mi
11:15 AM54 °FSunny.8 mph72%30.04 "Hg10 mi
10:45 AM54 °FSunny.9 mph67%30.01 "Hg10 mi
10:15 AM52 °FSunny.9 mph72%30.04 "Hg10 mi
9:45 AM52 °FSunny.9 mph77%30.04 "Hg10 mi
9:15 AM52 °FSunny.10 mph72%30.04 "Hg10 mi
8:45 AM50 °FSunny.8 mph82%30.01 "Hg10 mi
8:15 AM48 °FSunny.8 mph87%30.01 "Hg10 mi
7:45 AM48 °FSunny.8 mph87%30.01 "Hg10 mi
7:15 AM46 °FSunny.7 mph93%29.98 "Hg10 mi
6:45 AM45 °FSunny.5 mph100%29.98 "Hg10 mi
6:45 PM
Fri, Mar 27
48 °FPassing clouds.5 mph94%29.86 "Hg5 mi
6:15 PM48 °FPartly sunny.3 mph94%29.83 "Hg5 mi
5:45 PM48 °FOvercast.6 mph100%29.83 "Hg5 mi
5:15 PM48 °FLight rain. Fog.9 mph100%29.83 "Hg3 mi
4:45 PM48 °FLight rain. Fog.9 mph100%29.80 "Hg3 mi
4:15 PM48 °FLight rain. Fog.13 mph100%29.80 "Hg3 mi
3:45 PM48 °FLight rain. Fog.14 mph100%29.77 "Hg3 mi
3:15 PM48 °FLight rain. Fog.14 mph100%29.77 "Hg2 mi
2:45 PM48 °FLight rain. Fog.6 mph100%29.74 "Hg2 mi
2:15 PM48 °FLight rain. Fog.14 mph100%29.74 "Hg2 mi
Weather by CustomWeather, © 2015

See weather overviewHow to use our weather pages